Weather in Amosovka

Russia / Kursk Oblast     51°30′46″N   36°11′14″E
temp.,
°C
wind,
m/s
gust,
m/s
humid.,
%
clouds,
%
prec.,
mm/h
press.,
hPa
HPBL,
m
25 february, thu
thu2500:00−8ssw4895100 0.3 1032247
03:00−6sw4896100 0.4 1031238
06:00−5sw5895100 0.1 1029260
09:00−1wsw61196100 0.1 1027465
12:00+1wsw611100100 0.0 1025339
15:00+2wsw715100100 0.1 1023369
18:00+2w613100100 0.1 1022321
21:00+2w612100100 0.1 1022278
26 february, fri
fri2600:00+2wnw51199100 0.1 1022269
03:00+2wnw51199100 0.1 1022224
06:00+2w59100100 0.0 1021212
09:00+2w61199100 0.0 1020312
12:00+2wsw714100100 0.0 1018421
15:00+3w71599100 0.1 1016382
18:00+2wnw61499100 0.1 1014379
21:00+2w61398100 0.1 1014377
27 february, sat
sat2700:00+1w61297100 0.0 1013417
03:00+1w51196100 0.0 1012411
06:00+1w61297100 0.1 1010499
09:00+1wnw61197100 0.1 1009592
12:000w61199100 0.2 1008580
15:00+1w510100100 0.3 1008484
18:00+1wnw61197100 0.2 1008483
21:000nw61097100 0.4 1010567
28 february, sun
sun2800:000nw51196100 0.3 1011689
03:00−2n61092100 0.5 1014635
06:00−4n5109292 0.1 1015710
09:00−5n698796 0.1 1018755
12:00−3nnw5885100 0.1 1019755
15:00−3nnw5887100 0.1 1020736
18:00−3n4990100 0.1 1021707
21:00−3nnw2795100 0.1 1023474
1 march, mon
mon100:00−4n249797 0.1 1024197
03:00−4nne269598 0.2 1026502
06:00−4n3791100 0.1 1027442
09:00−4n3585100 0.1 1029774
12:00−3n3581100 0.1 1031799
15:00−2nnw248299 0.1 1031719
18:00−4wnw358988 0.0 1031106
21:00−4w358979 0.0 103291